GFSGL_700_temp_000.txt.gz
Temp
10 10 9 7 7 7 7 7 6 6 6 6 6 6 7 6 6 6 6 6 6 6 6 6 6 6 6 6 5 7 6 6 6 6 5 6 6 6 4 6 5 6 6
9 9 9 9 7 7 7 7 7 7 7 6 6 6 6 6 6 6 6 6 5 6 6 6 6 6 5 5 5 5 6 6 6 6 6 5 5 5 4 5 5 5 5
9 9 9 9 9 7 7 7 7 6 6 6 6 6 6 6 6 6 6 6 6 6 5 5 5 5 5 5 4 5 5 5 5 6 5 5 5 4 4 4 4 4 5
9 9 9 9 9 9 8 7 7 7 6 6 6 6 6 6 6 6 6 6 6 5 5 5 5 5 4 5 4 5 5 5 5 5 4 3 4 3 4 4 4 4 4
9 9 9 9 9 9 8 7 7 7 7 6 6 6 5 5 5 5 5 5 5 5 5 5 5 5 4 4 5 5 5 5 5 4 5 4 4 3 3 4 4 4 4
9 8 9 8 8 8 8 8 7 7 6 6 6 6 6 5 5 5 5 5 5 5 4 4 5 4 4 4 4 4 4 4 4 4 3 3 4 4 4 3 3 3 4
9 8 8 8 7 7 7 7 7 7 6 6 6 6 5 5 5 5 5 5 5 4 4 4 4 4 4 4 4 3 3 3 3 3 3 4 4 3 3 3 3 3 3
8 8 7 7 7 7 6 6 6 6 6 6 6 6 5 5 5 4 4 4 5 5 5 4 4 4 4 4 4 3 3 3 3 3 3 3 3 3 3 2 3 3 2
8 7 5 5 6 6 6 6 6 6 6 5 5 5 5 5 5 5 4 4 4 4 4 4 4 3 3 3 3 3 2 3 3 3 2 2 2 2 2 2 2 2 2
8 7 7 7 6 5 5 5 5 5 5 5 4 4 4 4 4 4 4 4 3 3 3 2 2 2 2 3 2 2 3 2 2 2 2 2 2 2 1 1 1 1 1
7 7 6 5 5 5 5 4 4 4 4 4 4 4 4 4 3 3 3 3 2 2 2 2 2 2 2 2 2 2 2 2 1 1 1 1 1 1 1 1 1 0 1
7 6 6 5 5 5 4 4 4 4 4 3 4 3 3 3 3 2 2 2 2 2 1 1 1 2 2 1 2 1 2 2 1 1 1 1 1 1 1 1 1 0 0
6 5 4 5 5 4 5 4 4 3 4 3 3 3 3 3 3 3 2 2 2 2 1 1 0 0 1 0 0 1 0 -0 -0 0 0 0 -1 -0 -0 0 0 -0 -0
5 5 5 5 5 4 4 3 3 3 3 3 3 3 2 2 2 2 1 1 1 0 0 0 0 0 0 0 0 0 0 -0 0 -0 -0 -1 -1 -1 -1 -1 -1 -1 -2
5 5 4 4 4 3 3 3 3 3 2 2 2 2 2 2 1 1 1 1 0 0 0 1 1 1 1 1 0 -0 -1 -1 -1 -2 -2 -2 -2 -2 -2 -3 -3 -3 -3
3 4 4 3 3 3 3 2 2 2 2 1 1 1 1 1 1 1 1 1 1 1 1 1 0 -0 -1 -1 -1 -2 -1 -2 -2 -2 -3 -3 -3 -3 -4 -4 -4 -5 -5
3 3 3 2 2 2 2 2 2 2 1 1 1 1 1 1 1 1 0 0 -0 -0 -1 -1 -2 -2 -3 -3 -3 -3 -4 -4 -4 -4 -5 -5 -5 -5 -5 -6 -6 -6 -6
2 2 2 2 2 2 2 2 2 2 1 2 1 1 1 1 0 -0 -1 -1 -2 -2 -2 -3 -3 -3 -4 -3 -4 -4 -4 -5 -5 -5 -6 -6 -6 -7 -7 -7 -7 -7 -7
2 2 2 2 2 1 1 1 1 2 2 1 1 0 0 -0 -1 -1 -2 -3 -3 -3 -4 -4 -4 -4 -4 -5 -5 -5 -5 -5 -6 -7 -7 -7 -7 -7 -8 -8 -8 -8 -8
2 1 2 0 0 -1 -3 -3 -2 -1 -2 -0 0 -0 -2 -2 -2 -2 -2 -4 -4 -4 -4 -5 -5 -4 -5 -5 -5 -6 -6 -7 -7 -7 -7 -8 -8 -8 -8 -8 -8 -8 -8
-0 -0 -1 -1 -3 -2 -2 -2 -1 -2 -4 -2 -3 -3 -3 -3 -4 -4 -4 -4 -4 -4 -4 -5 -5 -5 -6 -6 -6 -7 -7 -8 -7 -7 -8 -8 -8 -8 -8 -8 -8 -8 -8
-2 -3 -3 -2 -2 -3 -2 -1 -2 -2 -3 -3 -3 -3 -4 -4 -4 -4 -4 -4 -4 -5 -5 -6 -6 -6 -6 -6 -6 -7 -8 -8 -7 -8 -9 -9 -9 -9 -9 -9 -9 -9 -9
-3 -3 -3 -3 -3 -3 -2 -2 -2 -3 -5 -4 -3 -3 -3 -3 -4 -4 -5 -4 -5 -5 -5 -6 -6 -6 -6 -7 -7 -7 -8 -8 -8 -9 -9 -9 -9 -9 -9 -9 -8 -8 -9
-3 -4 -3 -4 -4 -4 -4 -4 -3 -4 -4 -4 -3 -3 -4 -4 -5 -4 -5 -5 -6 -6 -6 -6 -6 -6 -7 -8 -8 -8 -8 -9 -8 -9 -9 -9 -9 -9 -9 -9 -9 -9 -9
-4 -4 -4 -5 -5 -5 -5 -5 -6 -4 -3 -4 -4 -4 -4 -4 -5 -5 -5 -6 -6 -6 -6 -7 -7 -7 -7 -8 -8 -8 -8 -9 -9 -9 -9 -9 -9 -9 -9 -9 -9 -9 -9
-4 -4 -3 -4 -5 -5 -5 -5 -6 -5 -5 -5 -5 -5 -5 -5 -6 -5 -6 -6 -6 -7 -6 -7 -7 -7 -7 -8 -8 -8 -8 -8 -9 -9 -9 -9 -9 -9 -9 -9 -9 -9 -8

GFSGL_700_temp_003.txt.gz
Temp
10 9 10 10 8 8 7 7 7 7 7 7 7 7 7 7 6 6 6 6 6 6 6 6 6 6 6 6 6 5 5 6 6 6 6 6 6 6 6 5 6 5 4
9 9 9 9 9 8 7 7 7 7 7 6 7 6 6 7 6 6 6 6 6 6 6 6 6 6 6 6 6 5 5 5 6 6 6 6 6 6 5 6 5 4 4
9 9 9 9 9 9 8 7 7 7 7 6 6 7 6 6 6 6 6 6 6 6 6 6 6 6 6 6 5 5 5 5 5 6 5 5 5 4 4 3 4 4 4
10 9 8 8 9 9 9 8 7 7 7 7 6 6 6 6 6 6 6 6 6 5 5 5 5 5 6 5 5 5 4 5 5 5 5 5 4 4 3 3 2 4 4
9 9 9 8 8 8 9 8 8 7 7 7 6 6 6 5 5 6 5 5 5 5 5 5 5 5 5 4 4 4 4 4 4 4 4 4 4 4 3 3 3 4 4
9 8 9 8 7 7 8 8 8 8 7 7 6 6 6 6 6 6 5 5 5 5 5 5 5 4 4 4 4 4 4 4 4 4 4 4 4 3 3 3 3 3 3
8 8 8 8 7 6 7 7 7 6 6 6 6 6 5 6 6 5 5 5 5 5 5 5 4 4 4 4 4 4 4 3 3 3 3 3 2 2 3 3 2 3 3
8 7 7 6 6 7 7 6 6 6 6 6 6 6 6 6 5 5 5 4 4 4 4 4 4 4 4 3 4 3 3 3 3 3 2 2 3 2 2 3 3 2 3
8 7 7 6 6 5 5 6 6 6 5 5 5 5 5 5 4 4 5 4 4 4 4 4 4 4 4 3 3 3 2 2 3 3 2 2 2 2 2 2 2 1 2
8 7 6 6 6 5 5 5 5 5 5 5 5 4 4 4 4 4 4 4 4 4 3 3 1 2 3 3 3 2 2 2 2 1 2 2 2 2 1 2 1 1 1
8 7 7 6 5 4 5 5 5 5 5 4 4 3 4 4 4 3 3 2 2 2 2 3 3 3 3 3 2 3 3 2 2 2 2 1 1 1 1 1 1 0 -0
7 6 5 5 4 4 5 5 4 4 4 4 3 3 3 4 3 3 3 2 2 2 2 2 1 1 1 1 1 1 1 2 1 1 1 0 0 0 0 1 0 -0 -1
6 6 5 6 5 4 5 4 4 4 3 4 3 3 3 3 2 2 2 2 1 1 2 1 0 1 1 0 1 1 0 0 -0 -0 -0 0 0 1 1 0 -1 -1 -1
4 4 5 6 5 5 4 4 4 3 4 3 3 3 2 2 2 2 2 2 1 1 1 1 0 0 -0 0 0 0 1 1 0 0 -0 -1 -1 -1 -2 -2 -2 -2 -2
3 4 4 5 4 5 5 3 3 3 3 3 3 2 2 2 2 1 -0 1 1 1 1 1 1 1 1 1 0 -0 -1 -1 -1 -2 -2 -2 -3 -3 -3 -3 -3 -4 -4
4 4 4 4 4 3 3 3 2 2 3 2 2 2 2 1 1 1 1 1 1 1 1 0 0 0 -0 -1 -1 -1 -2 -2 -3 -3 -3 -3 -4 -4 -5 -5 -5 -5 -5
3 3 3 3 3 3 2 2 2 2 2 2 3 2 2 2 2 1 1 1 0 -0 -1 -1 -2 -2 -2 -3 -3 -3 -4 -4 -4 -4 -4 -4 -5 -6 -6 -6 -7 -6 -7
2 2 2 2 2 2 2 2 2 2 2 2 2 2 2 1 1 0 -0 -1 -1 -2 -2 -2 -3 -3 -3 -3 -3 -4 -4 -4 -4 -5 -5 -6 -6 -7 -7 -7 -8 -8 -8
2 2 2 2 2 2 3 2 2 2 2 1 1 1 0 0 -0 -1 -2 -2 -2 -2 -2 -3 -3 -3 -4 -4 -5 -5 -5 -5 -5 -5 -6 -7 -7 -7 -8 -8 -8 -8 -9
2 1 1 1 1 2 2 1 1 1 2 0 -0 -1 -1 -1 -2 -2 -2 -2 -3 -3 -4 -3 -3 -3 -4 -4 -5 -5 -5 -6 -6 -6 -7 -7 -8 -8 -8 -8 -9 -9 -9
-1 -1 -2 0 -1 -3 -2 -3 -2 -1 0 -1 -1 -2 -2 -2 -2 -2 -2 -3 -3 -3 -4 -5 -4 -5 -5 -5 -6 -6 -6 -6 -6 -7 -8 -8 -8 -9 -9 -9 -9 -9 -9
-2 -2 -3 -2 -3 -3 -3 -2 -2 -2 -1 -3 -2 -3 -3 -2 -3 -3 -3 -3 -4 -4 -5 -5 -6 -6 -5 -6 -6 -6 -7 -7 -7 -9 -9 -9 -9 -9 -9 -9 -9 -10 -9
-3 -4 -3 -3 -3 -2 -3 -3 -3 -2 -2 -2 -3 -3 -3 -3 -3 -3 -4 -4 -4 -5 -5 -5 -5 -6 -6 -6 -6 -7 -7 -7 -8 -8 -9 -9 -9 -9 -9 -9 -9 -9 -9
-4 -4 -4 -3 -3 -3 -3 -3 -4 -3 -2 -2 -2 -2 -3 -3 -4 -4 -4 -5 -5 -5 -5 -5 -6 -6 -7 -7 -7 -7 -7 -8 -8 -8 -8 -9 -9 -9 -9 -9 -9 -9 -9
-3 -3 -4 -4 -4 -4 -4 -4 -2 -2 -4 -5 -4 -3 -3 -4 -4 -4 -4 -5 -5 -5 -5 -6 -6 -6 -7 -7 -7 -7 -7 -7 -8 -8 -8 -9 -9 -9 -9 -9 -9 -9 -9
-3 -3 -3 -4 -5 -5 -5 -6 -5 -4 -4 -4 -3 -3 -4 -4 -4 -4 -4 -5 -5 -5 -5 -6 -6 -6 -6 -6 -7 -7 -7 -7 -7 -8 -8 -8 -8 -8 -9 -8 -9 -9 -8

GFSGL_700_temp_006.txt.gz
Temp
9 9 9 9 9 8 8 7 7 7 6 6 7 7 7 7 7 6 6 6 6 6 6 6 6 6 6 7 6 6 6 6 6 5 6 6 6 6 6 6 6 5 5
9 9 9 9 9 9 8 8 8 7 7 6 6 7 7 7 7 6 6 6 6 6 6 6 6 6 6 6 6 6 6 6 6 5 6 6 6 6 6 5 5 5 5
9 9 9 8 8 9 9 8 8 7 7 7 7 6 6 7 7 6 6 6 6 6 6 6 6 6 6 5 6 5 6 6 5 5 5 5 5 5 5 5 5 4 4
9 9 9 8 8 8 8 9 9 8 7 7 7 6 6 5 6 6 6 6 6 6 6 6 5 5 5 6 6 5 5 5 4 4 5 4 5 5 4 4 4 3 3
9 9 9 8 8 8 8 8 8 8 7 6 6 6 6 6 6 6 6 5 5 5 5 5 5 5 5 5 5 4 4 4 4 4 4 4 4 4 4 3 3 3 3
9 8 8 8 8 7 7 7 7 7 7 7 7 6 7 7 6 6 5 5 5 5 5 5 5 5 5 4 4 4 4 4 4 3 4 4 4 4 4 4 2 3 3
8 7 7 7 8 7 7 6 6 6 6 6 6 7 6 7 7 6 5 5 5 5 5 4 4 4 4 4 4 4 3 3 3 3 3 3 3 3 3 3 2 2 3
8 7 7 7 7 7 6 6 6 6 6 6 6 6 6 6 6 5 5 5 5 5 4 4 4 4 4 3 3 3 3 3 3 3 3 2 2 2 2 2 2 2 2
8 8 7 7 6 6 6 5 5 5 6 6 6 5 5 5 5 4 4 4 4 4 4 4 4 3 3 3 2 3 3 3 3 3 3 2 3 2 2 2 2 2 2
9 8 7 7 6 6 5 5 5 5 5 5 5 4 5 4 4 4 3 4 4 4 4 4 4 3 3 2 2 2 2 2 1 2 2 2 2 1 1 1 1 0 1
9 8 6 5 6 5 5 4 5 5 5 5 4 4 4 4 4 4 3 3 3 3 3 3 2 2 2 2 1 2 1 1 1 1 1 1 1 1 1 1 1 0 0
8 7 6 6 5 5 4 4 4 4 4 4 4 4 4 3 3 3 2 2 2 2 2 2 2 2 2 1 1 1 1 1 1 1 1 1 1 0 0 0 0 -0 -0
7 5 5 5 4 5 4 4 5 4 4 4 4 3 3 3 3 3 2 2 2 2 1 1 1 1 1 1 1 -0 0 0 0 0 0 -0 0 0 0 0 -0 -0 -1
6 5 4 5 6 5 4 5 4 4 3 4 3 3 3 2 2 2 1 1 0 -0 1 1 1 1 1 1 1 1 1 0 0 0 -0 -0 -1 -1 -1 -2 -2 -2 -2
4 4 4 4 4 4 4 4 3 3 3 3 3 3 2 2 2 1 1 0 0 1 1 1 1 1 1 0 0 -0 -0 -0 -1 -1 -2 -2 -2 -3 -3 -3 -4 -4 -4
3 3 3 3 3 4 4 4 3 3 2 2 2 2 2 1 1 2 1 1 1 1 0 0 0 -0 -0 -1 -1 -1 -1 -2 -2 -2 -3 -3 -4 -4 -4 -4 -5 -5 -5
3 3 3 3 3 3 3 3 2 2 2 3 3 3 2 2 2 2 1 1 0 0 0 -0 -0 -1 -1 -1 -2 -2 -2 -3 -3 -3 -4 -4 -4 -5 -5 -5 -6 -6 -6
2 2 2 2 2 2 2 2 2 2 2 2 2 2 2 1 1 1 0 -0 -0 -1 -1 -1 -2 -2 -2 -3 -3 -3 -4 -4 -4 -4 -5 -5 -5 -6 -6 -6 -7 -7 -8
2 2 2 2 2 2 2 2 1 1 2 1 1 1 1 0 -0 -0 -1 -1 -1 -2 -2 -2 -3 -3 -4 -4 -4 -4 -4 -5 -5 -6 -6 -6 -6 -7 -7 -7 -8 -8 -9
1 1 2 2 2 1 2 2 2 2 0 0 0 -0 -1 -1 -1 -1 -2 -2 -2 -2 -2 -2 -3 -3 -4 -5 -5 -5 -5 -5 -6 -6 -6 -7 -7 -7 -8 -8 -9 -9 -9
2 1 1 1 1 1 0 0 1 1 0 -0 -0 -1 -1 -2 -2 -2 -2 -2 -3 -3 -3 -3 -3 -4 -4 -4 -5 -5 -5 -6 -6 -7 -7 -7 -8 -8 -8 -9 -9 -9 -9
-1 -0 -1 -1 -2 -3 -3 -2 -1 -1 -1 -1 -2 -2 -2 -2 -2 -2 -3 -3 -3 -3 -4 -4 -4 -4 -4 -5 -5 -6 -6 -6 -7 -7 -8 -8 -8 -8 -8 -8 -9 -9 -9
-2 -3 -2 -3 -3 -4 -4 -3 -1 -2 -2 -2 -2 -2 -3 -3 -3 -4 -4 -4 -3 -3 -4 -4 -4 -4 -5 -5 -5 -6 -6 -6 -7 -7 -8 -8 -8 -8 -8 -8 -9 -9 -9
-3 -2 -2 -3 -4 -4 -3 -3 -2 -2 -2 -3 -3 -3 -3 -4 -4 -4 -4 -4 -3 -4 -4 -5 -5 -5 -5 -5 -5 -6 -6 -6 -7 -7 -7 -8 -8 -8 -8 -8 -8 -9 -9
-2 -1 -2 -2 -3 -3 -4 -3 -3 -3 -4 -3 -3 -3 -4 -4 -4 -4 -5 -5 -4 -4 -4 -5 -5 -5 -5 -5 -6 -6 -6 -6 -6 -7 -7 -7 -8 -8 -8 -8 -8 -8 -8
-2 -2 -2 -3 -3 -4 -4 -4 -4 -4 -5 -4 -4 -5 -4 -4 -4 -5 -5 -5 -4 -4 -4 -5 -5 -6 -6 -6 -6 -6 -6 -6 -7 -7 -7 -7 -7 -7 -8 -8 -8 -8 -8

GFSGL_700_temp_009.txt.gz
Temp
9 9 9 8 8 8 8 7 7 7 7 6 7 7 7 7 7 7 7 7 7 7 6 6 7 6 6 6 6 7 7 7 7 7 7 6 6 6 6 6 6 6 6
9 9 9 8 8 9 8 8 7 7 7 6 6 7 7 7 6 6 6 6 6 6 6 6 6 6 6 6 6 6 6 6 6 6 6 6 6 5 5 5 5 5 5
9 9 9 9 8 8 8 8 8 7 7 7 7 6 7 7 7 6 6 6 6 6 6 6 6 6 6 6 6 6 5 6 5 5 5 5 5 5 5 5 5 5 5
9 9 9 9 8 8 8 8 7 7 7 7 7 7 7 7 7 6 6 6 6 6 6 5 6 6 6 6 5 5 5 5 5 5 5 5 5 4 4 4 4 4 4
9 9 9 8 8 8 7 7 7 7 7 6 6 7 6 6 6 6 6 6 6 6 5 5 6 6 6 5 5 5 5 5 5 5 4 4 4 4 3 4 4 4 3
9 8 9 9 8 7 7 6 7 7 6 6 6 7 7 7 6 6 6 5 5 5 5 5 5 5 5 5 5 5 4 4 4 4 4 3 4 3 3 3 3 3 3
8 8 8 7 7 7 7 6 6 6 6 6 6 6 6 6 6 6 5 5 5 5 5 5 5 4 4 4 4 4 4 4 4 3 3 3 3 3 3 4 3 3 2
8 7 7 7 6 6 6 5 5 5 6 6 6 6 6 6 6 5 5 5 5 4 4 4 4 4 4 4 3 3 3 3 3 3 3 3 3 3 3 2 2 1 2
8 7 7 7 6 5 5 5 5 5 5 6 6 5 5 5 5 5 5 4 4 4 4 4 4 4 4 4 3 3 3 3 3 3 3 2 2 2 2 2 2 2 2
8 8 8 7 4 5 5 5 5 5 5 5 5 5 5 5 4 4 4 4 4 4 3 3 3 3 3 3 3 3 2 1 1 2 2 1 2 2 1 1 1 1 1
8 8 8 5 4 5 5 4 4 4 5 5 5 4 4 4 4 4 4 3 3 4 3 3 2 2 2 2 2 1 0 1 1 1 2 1 1 0 -0 1 1 1 0
8 8 8 6 4 4 4 4 4 5 4 4 4 4 4 4 4 3 3 3 3 2 2 1 2 2 2 2 1 1 1 1 1 1 1 0 0 1 0 0 -0 -0 -0
8 7 7 6 5 5 4 5 4 4 4 3 3 3 3 3 3 2 2 2 2 2 1 1 1 1 1 1 1 1 1 1 1 1 0 0 1 1 1 0 -0 -0 -1
7 5 5 5 4 5 4 5 4 4 3 3 3 3 3 3 3 2 2 2 1 1 -0 -1 -0 0 1 1 1 1 1 1 0 -0 -0 -1 -1 -1 -1 -2 -2 -2 -3
4 4 4 4 4 4 4 4 4 3 3 3 3 3 2 3 2 2 1 1 1 1 1 1 1 1 1 0 0 0 0 -0 -1 -1 -1 -2 -2 -2 -2 -3 -3 -3 -4
4 3 3 3 3 3 3 3 3 2 2 2 2 2 1 1 1 1 1 1 1 1 0 0 -0 -0 -1 -1 -1 -1 -1 -1 -2 -2 -3 -3 -3 -3 -3 -4 -4 -4 -5
4 3 3 3 3 3 3 2 2 2 2 2 2 2 2 2 2 2 1 1 1 0 -0 -1 -1 -1 -1 -1 -1 -1 -2 -2 -3 -3 -4 -4 -4 -4 -5 -5 -5 -6 -6
3 2 2 2 2 2 2 2 2 2 2 2 2 2 2 2 1 1 0 -0 -0 -1 -0 -1 -1 -2 -2 -2 -2 -3 -3 -4 -4 -4 -4 -5 -5 -5 -6 -6 -6 -7 -7
2 2 2 1 1 2 2 2 2 2 2 2 2 2 2 1 1 -0 -1 -1 -1 -1 -1 -2 -2 -2 -3 -3 -3 -4 -4 -4 -4 -5 -5 -5 -6 -6 -6 -7 -7 -7 -8
2 1 1 1 1 1 1 1 1 1 2 2 1 1 1 0 -1 -1 -1 -1 -2 -2 -2 -2 -3 -3 -4 -4 -4 -4 -4 -4 -5 -5 -5 -6 -6 -7 -7 -7 -7 -8 -8
1 1 1 0 0 0 1 1 1 1 1 1 0 -0 -1 -1 -1 -2 -2 -2 -2 -2 -3 -3 -3 -4 -4 -3 -3 -4 -4 -4 -5 -5 -5 -6 -6 -7 -7 -7 -8 -8 -9
1 -0 -1 -1 -1 -1 -1 -1 -1 -0 -0 -0 -1 -2 -2 -2 -3 -3 -3 -3 -3 -3 -3 -3 -3 -3 -3 -3 -3 -4 -4 -5 -5 -5 -6 -6 -7 -7 -7 -8 -8 -8 -8
0 -1 -1 -2 -2 -2 -2 -2 -3 -2 -2 -2 -2 -2 -2 -2 -3 -3 -3 -3 -3 -4 -4 -3 -3 -3 -3 -4 -4 -4 -4 -5 -5 -5 -6 -6 -7 -7 -7 -7 -8 -8 -8
-1 -2 -2 -3 -3 -2 -2 -3 -4 -4 -3 -2 -3 -3 -3 -3 -4 -4 -4 -4 -4 -4 -4 -3 -3 -3 -4 -4 -4 -4 -4 -5 -5 -5 -6 -6 -6 -7 -7 -7 -7 -7 -8
-2 -2 -2 -2 -3 -3 -4 -4 -4 -4 -4 -3 -4 -4 -4 -4 -4 -4 -5 -4 -4 -4 -4 -4 -4 -4 -4 -4 -4 -4 -5 -5 -5 -6 -6 -6 -6 -6 -7 -7 -7 -7 -8
-2 -2 -2 -2 -2 -3 -4 -4 -4 -5 -5 -5 -4 -4 -5 -5 -5 -5 -5 -5 -5 -5 -5 -4 -4 -4 -4 -4 -4 -5 -5 -5 -6 -6 -6 -6 -6 -6 -7 -7 -7 -7 -8

GFSGL_700_temp_012.txt.gz
Temp
9 9 9 8 8 8 8 7 7 7 6 6 6 6 6 6 7 6 6 6 6 7 7 7 7 6 6 6 6 6 6 6 6 6 5 5 6 6 7 6 6 6 5
9 9 8 8 8 7 8 8 8 7 6 6 6 7 7 6 6 6 6 6 6 6 6 6 6 6 6 6 6 5 6 6 6 5 5 5 6 6 6 6 6 6 6
9 9 8 8 8 7 7 7 8 7 7 7 6 6 6 6 6 6 6 6 6 6 6 6 6 6 6 6 5 5 5 6 6 5 5 5 5 5 5 5 5 5 5
8 8 8 8 7 7 7 7 7 7 7 7 6 6 6 6 6 6 6 6 6 6 6 6 6 6 5 5 5 5 5 5 5 5 5 5 5 5 5 4 4 4 4
8 8 8 8 7 7 7 7 7 7 7 6 6 6 6 6 6 6 6 6 6 6 5 6 6 5 5 5 5 5 5 5 5 5 4 4 4 4 3 4 4 4 4
8 8 8 7 7 7 6 6 6 6 6 6 6 7 7 7 7 7 6 6 6 6 5 5 5 5 5 5 4 4 4 4 4 4 4 4 4 3 3 3 3 3 3
8 8 7 7 7 7 6 6 6 6 6 6 6 6 6 6 6 6 6 6 6 6 5 5 5 5 4 4 4 4 4 4 4 4 4 3 3 3 3 3 3 3 3
8 7 7 7 7 7 6 5 5 5 5 5 5 5 5 5 5 5 5 5 5 5 5 5 5 5 4 4 4 4 4 4 4 4 4 3 3 3 3 2 2 2 2
8 8 8 7 7 6 5 5 5 5 5 5 5 5 5 5 5 5 5 4 4 4 4 4 4 4 4 3 3 4 3 3 3 3 3 2 2 2 2 2 2 1 1
8 8 8 8 7 7 5 5 4 5 5 5 5 5 5 4 4 4 4 4 3 3 3 3 3 2 3 2 2 2 2 2 2 2 2 1 1 2 1 2 1 1 0
8 8 8 8 7 6 5 4 5 4 5 4 4 4 4 4 4 3 3 3 3 3 3 2 2 2 2 2 1 1 1 1 1 1 1 1 1 1 1 1 0 0 0
8 8 8 8 7 6 4 4 3 4 4 4 4 4 3 3 3 3 3 2 2 2 2 2 2 1 1 2 2 1 1 1 1 1 1 1 -0 -0 0 -0 -0 0 0
7 7 8 7 7 5 5 4 4 4 4 3 3 3 3 3 3 3 3 2 2 1 2 2 1 1 1 1 1 1 1 1 1 2 1 1 1 1 0 0 -0 -1 -1
7 7 7 6 5 5 5 4 4 4 4 3 2 3 3 3 2 3 2 2 2 1 2 2 2 1 0 0 1 1 1 1 0 0 -0 -0 -1 -1 -1 -2 -2 -2 -2
7 6 6 4 4 4 4 4 4 3 3 3 2 2 3 3 2 1 2 1 2 1 2 1 1 1 1 1 1 1 0 -0 -0 -1 -1 -1 -1 -2 -2 -2 -3 -3 -3
5 6 5 3 3 3 4 4 3 3 3 2 2 2 2 1 0 -0 1 1 2 1 1 1 0 0 0 0 -0 -0 -1 -1 -1 -1 -2 -2 -2 -3 -3 -3 -4 -4 -5
4 4 3 3 3 3 3 3 3 3 2 2 2 2 2 1 1 1 1 1 1 1 0 0 -0 -0 -0 -0 -1 -1 -1 -2 -2 -2 -3 -3 -4 -4 -4 -5 -5 -5 -6
3 3 2 2 2 2 2 2 2 2 2 2 2 2 2 1 1 1 1 0 -0 -0 -0 -1 -1 -1 -1 -1 -1 -1 -2 -2 -3 -3 -3 -4 -4 -5 -5 -5 -6 -6 -7
3 3 2 2 2 2 2 2 2 2 2 2 2 2 1 1 0 -0 -0 -1 -1 -1 -1 -1 -1 -1 -1 -1 -2 -2 -2 -3 -3 -3 -4 -4 -4 -5 -6 -6 -6 -7 -7
2 2 2 2 1 1 1 1 1 2 2 2 1 1 0 -0 -1 -2 -1 -1 -1 -1 -1 -2 -2 -2 -1 -2 -2 -3 -3 -3 -3 -4 -4 -4 -5 -5 -6 -7 -7 -7 -8
1 1 1 -0 -0 -0 0 0 0 -0 0 0 0 -1 -1 -2 -2 -2 -2 -2 -2 -2 -2 -2 -2 -2 -2 -3 -3 -3 -3 -3 -4 -4 -4 -5 -5 -6 -6 -7 -7 -7 -8
0 -0 -0 -0 -0 -1 -1 -1 -2 -2 -2 -1 -2 -2 -2 -2 -3 -3 -2 -2 -3 -2 -2 -2 -2 -3 -3 -3 -3 -3 -3 -3 -3 -4 -4 -5 -5 -6 -6 -7 -7 -7 -7
0 -0 -1 -1 -1 -2 -2 -3 -3 -3 -3 -3 -2 -3 -3 -3 -3 -3 -3 -3 -3 -3 -2 -2 -3 -3 -3 -3 -3 -3 -3 -3 -3 -4 -4 -5 -5 -6 -6 -6 -7 -7 -7
-1 -1 -2 -2 -2 -3 -3 -3 -4 -4 -4 -4 -4 -4 -3 -3 -4 -4 -4 -4 -4 -4 -3 -3 -3 -3 -3 -3 -3 -3 -3 -3 -4 -4 -5 -5 -5 -5 -6 -6 -6 -6 -6
-2 -2 -2 -2 -3 -3 -3 -4 -4 -4 -4 -4 -5 -5 -5 -5 -5 -5 -5 -4 -4 -4 -4 -4 -3 -4 -3 -4 -4 -4 -4 -4 -4 -5 -5 -5 -5 -5 -6 -6 -6 -6 -6
-3 -3 -3 -3 -3 -2 -3 -4 -4 -4 -4 -5 -5 -5 -5 -5 -6 -6 -5 -5 -5 -5 -5 -4 -4 -4 -4 -4 -4 -4 -4 -4 -5 -5 -5 -5 -6 -6 -6 -6 -6 -6 -7

GFSGL_700_temp_015.txt.gz
Temp
9 9 9 8 8 8 8 8 8 7 7 7 6 7 6 6 6 7 6 6 6 6 6 6 6 6 6 6 6 6 6 6 6 6 7 6 6 6 6 6 5 6 6
9 9 8 8 8 8 8 8 8 8 7 7 6 6 6 6 6 6 6 6 6 6 6 6 6 6 6 6 6 6 6 5 6 6 6 6 6 6 6 5 5 5 5
9 8 8 8 8 8 7 7 7 7 7 7 7 7 7 6 6 6 6 6 6 6 6 6 6 6 6 5 5 5 5 5 5 6 5 5 5 5 5 5 5 5 5
9 9 8 8 7 7 7 7 7 7 7 7 7 7 6 6 6 6 6 6 6 5 6 5 5 5 5 5 5 5 5 5 5 5 5 5 5 5 5 5 5 4 5
8 8 8 8 7 7 7 7 7 7 7 7 7 7 7 7 7 6 6 6 6 6 6 6 5 5 5 5 5 5 5 5 5 5 5 5 5 5 4 4 4 3 3
8 8 8 7 7 6 6 6 6 6 6 6 6 7 7 7 7 6 6 6 6 6 6 5 5 5 5 5 5 4 5 4 4 4 4 4 4 3 3 4 3 3 3
8 8 7 7 7 6 6 6 6 6 6 6 6 6 6 6 6 6 6 6 6 5 5 5 5 5 5 5 4 4 4 5 5 4 4 4 3 3 3 3 3 3 2
8 8 8 7 6 6 6 5 5 5 5 5 6 6 5 5 5 5 5 5 5 5 5 5 5 4 4 4 4 4 4 4 4 4 4 3 3 3 3 3 2 2 2
8 8 8 8 7 7 5 4 4 5 5 5 5 5 5 5 4 5 4 4 4 4 4 4 4 3 3 3 3 3 3 3 3 3 2 2 2 2 2 2 2 2 1
8 8 8 8 8 7 6 4 4 4 4 4 4 4 4 4 4 4 4 4 4 3 3 3 3 3 3 2 2 2 2 2 2 2 2 2 2 2 2 2 2 1 1
8 8 8 8 7 7 6 4 4 4 4 4 5 4 4 4 4 4 3 3 3 3 2 2 2 2 2 2 2 1 1 1 1 1 1 2 1 1 2 2 1 0 0
7 7 7 7 7 6 4 4 4 4 4 4 4 4 4 3 3 3 3 3 2 2 2 2 2 2 1 0 1 1 1 1 1 1 1 1 1 1 1 1 1 0 0
7 7 7 7 7 6 5 4 5 4 4 4 4 4 3 3 3 3 3 2 2 2 2 2 2 1 1 0 -0 1 0 1 1 1 1 1 1 1 0 0 -0 -0 -1
7 7 7 7 6 4 5 5 4 4 4 4 3 2 2 3 2 2 2 2 2 2 1 2 2 2 2 1 1 1 1 1 1 1 1 0 -0 -0 -1 -1 -1 -2 -2
6 6 6 5 4 4 4 3 4 4 3 3 2 2 2 2 2 1 2 1 1 1 1 2 2 1 1 1 1 1 1 0 0 -0 -0 -1 -1 -1 -1 -2 -2 -3 -3
5 5 5 5 4 3 3 3 3 3 3 3 2 2 2 2 2 1 2 1 1 1 1 1 1 1 1 0 0 -0 -0 -0 -0 -1 -1 -1 -2 -2 -3 -3 -3 -4 -4
4 4 4 4 4 3 3 3 3 3 3 2 2 2 2 2 2 2 2 1 1 1 0 0 -0 -0 -0 -1 -1 -0 -1 -1 -1 -1 -1 -2 -3 -3 -3 -4 -4 -5 -6
4 3 3 3 3 3 3 2 2 2 2 2 2 2 2 2 1 1 1 1 0 -0 -1 -0 -1 -1 -1 -1 -1 -1 -1 -1 -1 -1 -2 -2 -3 -3 -4 -4 -5 -6 -6
3 3 3 3 3 3 2 2 2 2 2 2 2 2 1 1 1 0 -0 -1 -1 -1 -1 -1 -1 -1 -1 -1 -1 -1 -1 -1 -2 -2 -3 -3 -3 -3 -4 -5 -6 -6 -7
2 2 2 2 2 2 2 2 2 2 2 2 1 1 0 -0 -1 -1 -1 -2 -2 -2 -2 -1 -1 -1 -1 -1 -1 -1 -1 -2 -2 -2 -3 -3 -3 -4 -4 -5 -6 -7 -7
2 2 2 1 1 1 0 0 1 1 1 1 -0 -0 -1 -1 -2 -2 -2 -2 -2 -2 -2 -2 -2 -2 -2 -1 -1 -2 -2 -2 -3 -3 -3 -3 -3 -4 -4 -6 -6 -6 -7
1 1 0 -0 -0 -1 -1 -1 -1 -1 -1 -1 -2 -2 -2 -2 -3 -2 -2 -3 -2 -2 -3 -2 -2 -2 -2 -2 -2 -2 -2 -3 -3 -3 -3 -4 -4 -4 -4 -5 -6 -6 -6
-0 -1 -1 -1 -1 -2 -2 -2 -3 -3 -2 -2 -2 -3 -3 -3 -3 -3 -3 -3 -3 -3 -3 -3 -3 -3 -3 -3 -3 -3 -3 -3 -3 -3 -3 -4 -4 -4 -4 -5 -5 -5 -5
-2 -2 -1 -2 -2 -2 -3 -3 -3 -3 -3 -3 -3 -4 -4 -4 -4 -4 -4 -4 -4 -4 -4 -3 -3 -3 -3 -3 -3 -3 -4 -4 -3 -4 -4 -4 -4 -4 -5 -5 -5 -5 -5
-2 -2 -2 -2 -2 -2 -2 -3 -4 -4 -4 -4 -4 -5 -5 -6 -6 -6 -5 -5 -6 -5 -5 -4 -4 -4 -4 -4 -4 -4 -4 -4 -4 -4 -4 -4 -5 -5 -5 -5 -5 -5 -6
-2 -2 -4 -3 -2 -2 -2 -2 -2 -3 -3 -4 -4 -5 -6 -6 -6 -7 -6 -6 -7 -6 -6 -6 -5 -5 -5 -5 -5 -4 -4 -4 -4 -4 -5 -5 -5 -5 -5 -6 -5 -6 -6

GFSGL_700_temp_021.txt.gz
Temp
10 10 9 9 9 9 9 8 8 8 8 8 7 7 7 7 7 7 7 7 7 7 7 7 7 6 6 6 6 6 7 6 6 6 6 6 6 6 6 6 6 6 6
10 9 9 9 9 9 9 9 8 8 8 8 7 7 7 7 7 7 7 7 7 7 7 7 6 6 6 6 6 6 6 6 6 6 6 6 6 6 5 6 5 5 5
10 9 9 9 9 8 8 9 8 8 8 8 8 8 8 8 7 7 7 7 7 7 7 6 6 6 6 6 6 7 6 6 6 6 6 6 6 5 5 4 5 5 5
9 9 9 9 9 8 8 8 8 8 7 7 8 8 8 8 8 8 8 7 7 7 7 6 6 6 6 6 6 6 6 6 6 6 6 5 5 5 5 4 5 5 5
9 9 9 9 9 8 8 8 8 8 7 7 7 8 7 7 7 7 7 7 7 7 7 7 6 5 6 5 6 6 6 5 5 5 5 5 5 5 5 5 4 4 4
9 8 8 9 9 9 8 8 8 7 7 7 7 7 7 6 6 6 7 6 7 7 7 7 6 6 6 6 5 5 5 5 4 4 4 4 4 4 4 4 3 4 3
9 9 9 9 9 9 8 8 8 7 7 6 6 6 6 6 6 6 6 6 6 6 6 6 6 6 5 5 5 5 4 4 4 4 4 4 4 3 3 3 3 3 2
9 9 9 9 8 9 8 8 7 7 6 6 5 6 6 6 6 5 5 5 5 5 5 5 5 5 5 5 4 4 4 4 4 4 3 3 3 3 2 3 2 2 2
9 9 9 9 8 8 8 8 7 6 5 5 5 5 5 5 5 5 5 5 4 5 5 4 4 4 4 4 3 3 3 3 3 3 3 3 2 2 2 2 2 2 2
9 9 9 8 8 8 8 8 7 6 5 5 5 5 5 5 5 5 4 4 4 4 4 4 3 3 3 3 3 2 2 2 2 2 2 2 2 2 2 2 2 1 1
9 9 9 9 8 8 7 8 7 5 5 5 4 4 4 4 4 4 4 4 4 4 3 3 3 2 2 2 2 2 1 1 2 1 2 2 2 2 2 2 2 2 1
9 9 9 8 8 7 7 7 7 6 5 5 4 4 4 4 4 4 3 3 3 3 3 3 2 2 2 2 2 1 1 1 1 1 1 2 2 2 2 2 2 1 1
9 9 8 8 8 8 8 7 6 5 4 5 5 4 4 4 4 3 3 3 3 3 3 2 2 2 2 3 2 2 1 1 1 1 2 1 1 1 1 1 1 1 1
8 8 8 7 8 7 7 6 5 5 4 4 4 4 4 4 3 3 2 3 2 2 2 1 2 2 2 2 2 1 1 1 1 1 1 1 1 1 1 1 1 1 0
8 8 8 7 7 7 7 6 5 5 5 4 4 4 3 3 3 2 2 2 1 1 1 1 1 1 2 2 1 1 1 0 0 0 0 1 1 1 0 0 0 -0 -1
8 8 7 6 6 6 6 5 5 3 4 4 3 3 3 3 3 2 2 1 1 1 0 1 1 1 1 1 1 0 0 -0 -0 0 0 0 0 -0 -0 -0 -1 -1 -2
7 7 6 5 5 5 5 5 3 3 3 3 3 3 2 2 2 2 2 2 1 1 1 1 0 0 -0 -1 -0 -1 -0 -0 -0 -0 -0 -0 -0 -1 -1 -1 -2 -2 -3
6 5 5 4 4 4 4 4 4 3 3 3 3 2 2 2 2 2 1 1 0 -0 -0 -0 -1 -1 -1 -1 -1 -1 -1 -1 -1 -1 -1 -1 -1 -1 -1 -2 -2 -3 -4
5 4 4 4 3 3 3 3 3 3 3 3 3 3 2 2 2 1 1 0 -0 -2 -1 -1 -1 -1 -1 -1 -1 -1 -1 -1 -1 -1 -1 -1 -1 -2 -2 -2 -3 -3 -4
4 3 3 3 3 3 2 2 2 2 2 2 2 2 1 1 1 0 -0 -1 -1 -2 -2 -2 -2 -1 -2 -1 -1 -1 -1 -2 -2 -2 -2 -2 -2 -2 -2 -3 -3 -4 -4
3 3 2 2 1 1 1 1 1 1 1 1 1 0 0 -0 -1 -2 -1 -2 -2 -2 -2 -2 -3 -2 -1 -2 -2 -2 -2 -2 -2 -2 -2 -2 -3 -3 -3 -3 -3 -4 -4
2 2 0 -2 0 -0 -1 -1 -1 -2 -2 -2 -2 -0 -1 -1 -1 -2 -3 -3 -3 -3 -3 -3 -3 -3 -3 -2 -2 -2 -3 -3 -3 -3 -3 -3 -3 -3 -3 -3 -4 -4 -4
-1 -1 -2 -2 -3 -2 -2 -3 -3 -3 -3 -4 -4 -4 -2 -2 -2 -3 -3 -4 -4 -4 -4 -4 -3 -3 -3 -3 -3 -3 -3 -3 -4 -4 -3 -3 -4 -3 -4 -4 -4 -4 -4
-3 -3 -3 -2 -2 -2 -3 -3 -3 -3 -3 -3 -3 -4 -4 -5 -5 -6 -5 -5 -5 -5 -4 -4 -4 -5 -4 -4 -4 -4 -4 -4 -4 -4 -4 -4 -4 -4 -4 -4 -4 -4 -5
-2 -2 -2 -3 -2 -3 -3 -3 -2 -2 -3 -3 -3 -3 -3 -4 -4 -5 -5 -5 -6 -6 -6 -6 -5 -5 -5 -5 -5 -6 -5 -5 -6 -5 -5 -5 -5 -5 -5 -5 -5 -5 -5
-3 -2 -2 -3 -3 -3 -3 -3 -3 -3 -3 -4 -4 -4 -4 -5 -5 -5 -5 -5 -6 -6 -6 -6 -6 -7 -7 -7 -6 -6 -6 -6 -6 -6 -6 -6 -6 -5 -5 -5 -5 -5 -5

GFSGL_700_temp_024.txt.gz
Temp
10 9 9 9 9 9 9 9 8 8 8 8 8 8 8 8 7 7 7 7 7 7 7 7 7 7 7 7 6 6 6 6 7 7 7 7 7 7 6 6 6 6 6
10 9 9 9 9 9 9 8 9 8 8 8 8 9 8 8 8 7 7 7 7 7 7 7 7 7 7 7 6 6 6 6 6 7 6 6 6 6 6 6 6 7 6
9 9 9 9 9 8 9 8 8 8 8 8 8 8 8 8 8 7 7 7 7 7 7 6 6 6 6 7 7 7 7 7 6 6 6 6 6 6 5 5 6 6 5
9 9 9 9 9 8 8 8 8 8 8 8 7 7 8 8 8 7 7 7 7 7 7 7 6 6 6 6 6 6 7 6 6 5 5 5 6 5 5 5 5 5 5
9 9 9 9 9 8 8 8 8 8 8 7 7 7 7 7 7 7 7 7 7 7 7 7 7 6 6 6 6 6 6 6 6 6 5 6 5 5 5 4 4 4 4
9 9 9 9 8 8 8 8 8 7 7 7 6 6 7 7 7 7 7 7 7 7 6 6 6 6 6 6 6 6 6 5 4 5 5 5 5 5 4 4 4 4 4
9 9 9 8 8 8 8 8 7 7 7 7 6 6 6 6 6 6 6 6 6 6 6 6 5 5 5 5 5 5 4 4 4 4 4 5 4 4 4 3 3 3 2
9 9 9 9 8 8 8 8 8 7 7 7 6 5 6 6 6 6 6 6 6 5 5 5 5 5 4 4 4 4 4 4 4 4 3 3 3 3 3 2 2 2 3
9 9 9 9 8 8 8 8 7 7 7 7 5 5 5 5 5 5 5 5 5 5 5 4 4 4 4 4 3 3 3 3 3 3 2 2 2 2 2 2 2 2 3
9 9 9 9 9 8 8 7 7 7 7 6 5 5 5 5 4 5 5 5 5 5 5 4 4 4 3 3 3 3 2 2 2 1 2 2 2 2 2 2 2 2 3
9 9 9 9 8 8 8 7 7 7 7 6 5 5 5 4 4 4 5 5 5 5 4 3 3 3 3 3 2 2 2 2 1 1 1 1 2 2 2 2 2 1 2
9 9 9 9 8 8 8 8 7 7 6 5 5 4 4 4 4 4 4 4 4 4 3 2 2 2 2 2 2 3 3 2 2 1 2 2 2 2 2 2 2 1 1
9 9 9 8 8 8 8 8 8 7 5 5 5 5 4 4 5 4 4 3 3 3 2 2 2 2 1 2 2 2 2 2 1 2 2 2 1 2 2 2 1 1 1
9 9 8 8 8 8 8 7 7 6 5 5 5 4 4 4 4 4 3 3 3 2 2 1 1 1 1 1 2 2 2 1 1 1 1 1 1 1 1 1 1 2 2
9 9 8 8 8 8 7 7 7 6 5 5 4 4 4 3 3 3 2 2 2 2 1 0 -0 1 1 1 2 1 1 0 0 0 0 0 1 1 1 0 -0 -0 -0
9 8 8 8 8 7 7 6 6 6 5 2 2 3 3 3 3 2 2 1 1 1 -0 1 1 1 1 1 1 0 -0 -0 -0 -0 -0 -0 -0 -0 0 -0 -1 -1 -1
8 8 7 7 6 6 6 6 5 5 4 3 3 3 2 3 2 2 2 1 1 1 0 0 1 1 0 -0 -1 -1 -1 -0 -1 -1 -1 -0 -1 -1 -1 -1 -1 -1 -2
7 7 6 6 6 6 5 5 5 5 4 3 3 3 3 3 2 2 2 1 1 0 -0 -0 -0 -1 -1 -1 -1 -1 -1 -1 -1 -1 -1 -1 -1 -1 -1 -1 -2 -1 -2
6 6 5 5 4 4 4 4 3 3 4 3 3 3 3 2 2 1 1 0 -0 -1 -2 -1 -1 -1 -1 -1 -1 -1 -2 -2 -2 -1 -2 -2 -2 -2 -2 -2 -2 -2 -3
5 4 4 4 3 3 3 3 2 2 2 2 2 2 1 1 1 1 -0 -1 -1 -1 -2 -2 -2 -1 -2 -2 -2 -2 -2 -2 -2 -2 -2 -2 -2 -2 -2 -2 -2 -3 -3
4 3 3 2 2 1 1 1 1 1 1 0 1 -0 1 1 0 -0 -1 -1 -1 -2 -2 -3 -3 -3 -2 -2 -2 -2 -2 -2 -3 -2 -3 -3 -3 -3 -3 -3 -3 -3 -3
2 2 -0 -1 1 -1 -1 -1 -1 -2 -2 -2 -1 -1 -1 -2 -2 -2 -3 -3 -4 -3 -3 -3 -3 -3 -3 -4 -3 -3 -3 -3 -3 -4 -4 -4 -4 -3 -3 -3 -3 -4 -4
1 -1 -1 -2 -2 -2 -2 -2 -2 -2 -2 -2 -3 -3 -2 -3 -3 -3 -3 -4 -4 -4 -4 -4 -4 -4 -4 -4 -4 -4 -4 -4 -4 -5 -5 -5 -4 -4 -4 -4 -4 -4 -4
-2 -2 -2 -2 -2 -2 -2 -2 -2 -2 -2 -2 -3 -3 -3 -3 -4 -4 -4 -5 -5 -5 -5 -5 -4 -4 -5 -5 -5 -5 -5 -5 -5 -5 -6 -6 -6 -6 -6 -5 -5 -5 -5
-2 -2 -3 -3 -2 -3 -2 -2 -2 -2 -2 -3 -3 -3 -3 -3 -4 -4 -4 -5 -5 -5 -5 -5 -6 -6 -6 -6 -6 -6 -6 -6 -7 -6 -6 -6 -6 -6 -6 -6 -6 -6 -5
-1 -1 -2 -2 -2 -3 -3 -3 -3 -3 -3 -3 -4 -4 -5 -4 -5 -5 -5 -5 -5 -5 -5 -5 -5 -6 -6 -6 -6 -6 -7 -6 -7 -7 -7 -7 -7 -7 -7 -7 -6 -6 -6